User: anonymous   Login
Location: Unspecified
(0.0000°N, 0.0000°E)
Time: 23:48:11
(UTC+00:00)
Language:

COMSATBw-2 - Orbit

View from above orbital plane
View from above orbital plane
View from above satellite
View from above satellite

Ground track
Ground track

The orbit data is extracted from the following two-line orbital elements,

1 36582U 10021B   21340.34702101  .00000093  00000-0  00000-0 0  9998
2 36582   0.0566  97.6234 0002145 164.5585 311.3138  1.00268495 42371
Epoch (UTC): 06 December 2021 08:19:42
Eccentricity: 0.0002145
inclination: 0.0566°
perigee height: 35778 km
apogee height: 35796 km
right ascension of ascending node: 97.6234°
argument of perigee: 164.5585°
revolutions per day: 1.00268495
mean anomaly at epoch: 311.3138°
orbit number at epoch: 4237

The dashed part of the orbit path shows where the satellite is in the earth's shadow,  

DLR